Regional Weather Roundup
Issued by NWS Cleveland, OH

Home | Current Version | Previous Version | Graphics & Text | Print | Product List | Glossary On
Versions: 1 2 3 4 5 6 7 8 9 10 11 12 13 14 15 16 17 18 19 20 21 22 23 24 25 26 27 28 29 30 31 32 33 34 35 36 37 38 39 40 41 42 43 44 45 46 47 48 49 50
000
ASUS41 KCLE 240102
RWRCLE
OHIO REGIONAL WEATHER ROUNDUP
NATIONAL WEATHER SERVICE CLEVELAND, OH
900 PM EDT SUN JUL 23 2017

NOTE: "FAIR" INDICATES FEW OR NO CLOUDS BELOW 12,000 FEET WITH NO
SIGNIFICANT WEATHER AND/OR OBSTRUCTIONS TO VISIBILITY.

OHZ001>008-015>018-024>027-034-035-043-044-240200-
   NORTHWEST OHIO

CITY           SKY/WX    TMP DP  RH WIND       PRES   REMARKS
DEFIANCE       CLEAR    N/A N/A N/A CALM      29.77F
FINDLAY        CLOUDY    70  63  78 SW6       29.77R
TOLEDO EXPRESS PTCLDY    71  71 100 CALM      29.76S
TOLEDO EXEC    CLOUDY    73  70  90 W6        29.77R
LIMA           CLOUDY    71  70  96 SE5       29.80R
$$

OHZ009>014-019>023-028>033-038-089-240200-
   NORTHEAST OHIO

CITY           SKY/WX    TMP DP  RH WIND       PRES   REMARKS
CLE-HOPKINS    CLOUDY    78  67  68 CALM      29.76R
CLE-LAKEFRONT  PTCLDY    77  69  76 N5        29.74R
CUY CO. ARPT   MOCLDY    77  64  65 CALM      29.77R
LORAIN-ELYRIA  PTCLDY    73  66  78 W8        29.77R
ASHTABULA      CLOUDY    72  69  90 N3        29.76R
AKRON-CANTON   CLOUDY    74  67  78 SW12      29.78R THUNDER
WOOSTER        LGT RAIN  69  67  93 W7        29.79R
MANSFIELD      CLOUDY    68  67  96 S5        29.80F
YOUNGSTOWN     CLOUDY    73  70  90 W3        29.76S
$$

OHZ042-051>053-060>062-070>072-077>081-240200-
  SOUTHWEST OHIO

CITY           SKY/WX    TMP DP  RH WIND       PRES   REMARKS
CINC-COVINGTON CLOUDY    75  70  84 W10       29.81S
CINC-LUNKEN    CLEAR     78  71  79 W7        29.79S
HAMILTON       CLEAR     79  70  74 W8        29.80R
DAYTON         PTCLDY    71  65  81 W7        29.81S
WRIGHT-PAT AFB CLEAR     71  69  90 NE5       29.79S
DAYTON GENERAL PTCLDY    79  68  69 W8        29.80R
WILMINGTON     CLOUDY    73  70  90 SW6       29.80R
$$

OHZ036-037-039>041-045>050-054>059-063>069-073>076-082>088-240200-
  CENTRAL AND SOUTHEAST OHIO

CITY           SKY/WX    TMP DP  RH WIND       PRES   REMARKS
COLUMBUS       LGT RAIN  71  71 100 NW5       29.77F
OSU AIRPORT    MOCLDY    70  70 100 W7        29.78F
BOLTON FIELD   NOT AVBL
RICKENBACK AFB CLOUDY    70  69  99 E3        29.78R
NEWARK         LGT RAIN  70  68  93 W9        29.80R
MARION         LGT RAIN  70  66  87 S7        29.80R FOG
LANCASTER      TSTM      67  67 100 N14G26    29.84R VSB 1/2
ZANESVILLE     CLOUDY    72  63  73 N3        29.80R
NEW PHILLY     NOT AVBL
$$




USA.gov is the U.S. government's official web portal to all federal, state and local government web resources and services.